San Sebastian, Spain

4:21 PM CEST on July 24, 2016 (GMT +0200)
Francia - Hendaye | | Change Station

Elev 30 ft 43.35 °N, 1.78 °W | Updated 0 second ago

Overcast
Overcast
70.9 °F
Feels Like 74 °F
N
3.0
Wind Variable Wind from NE
Gusts 5.0 mph

Today
High -- | Low -- °F
--% Chance of Precip.
Yesterday
High -- | Low -- °F
Precip. -- in
Pressure 30.21 in
Visibility 6.2 miles
Clouds Scattered Clouds 2000 ft
Overcast 3500 ft
Heat Index 74 °F
Dew Point 61 °F
Humidity 72%
Rainfall 0.04 in
Snow Depth Not available.
6:49 AM 9:37 PM
Waning Gibbous, 76% visible
METAR LESO 241400Z VRB02KT 9999 SCT020 OVC035 22/16 Q1023
Pressure 30.21 in
Visibility 6.2 miles
Clouds Scattered Clouds 2000 ft
Overcast 3500 ft
Heat Index 74 °F
Dew Point 61 °F
Humidity 72%
Rainfall 0.04 in
Snow Depth Not available.
6:49 AM 9:37 PM
Waning Gibbous, 76% visible
METAR LESO 241400Z VRB02KT 9999 SCT020 OVC035 22/16 Q1023

10-Day Weather Forecast

×

Almanac

Astronomy

Jul. 24, 2016 Rise Set
Actual Time
Civil Twilight
Nautical Twilight
Astronomical Twilight
Moon
Length of Visible Light
Length of Day
Tomorrow will be .
, % of the Moon is Illuminated

Today's Extremes

Country Highs Country Lows

Community

WunderPhotos

Upload Photos

1,927,062 photos uploaded!

WunderBlog® & News

Nearby

Air Quality

  Air Quality AQ Index Pollutant
Not available.

Snow Depth

Station Depth Elevation

Earthquake Activity

City Distance Mag. Time & Date
Minimum magnitude displayed is 2.5.

Coastal Water Temperatures

Place Temperature

Stations

Nearby Weather Stations

Station Location Temp. Windchill Dew Point Humidity Wind Precip. Elev Updated Type